TimePST,TemperatureF,Dew PointF,Humidity,Sea Level PressureIn,VisibilityMPH,Wind Direction,Wind SpeedMPH,Gust SpeedMPH,PrecipitationIn,Events,Conditions,WindDirDegrees,DateUTC
12:54 AM,45.0,45.0,100,30.11,-9999.0,Calm,Calm,-,N/A,,Clear,0,2013-01-09 08:54:00
1:54 AM,44.1,44.1,100,30.12,-9999.0,NNE,3.5,-,N/A,,Clear,20,2013-01-09 09:54:00
2:54 AM,45.0,44.1,97,30.12,-9999.0,NE,4.6,-,N/A,,Clear,40,2013-01-09 10:54:00
3:14 AM,44.6,44.6,100,30.10,-9999.0,Variable,3.5,74.8,N/A,,Squalls,0,2013-01-09 11:14:00
3:54 AM,41.0,41.0,100,30.09,-9999.0,Calm,Calm,-,N/A,,Clear,0,2013-01-09 11:54:00
4:54 AM,43.0,43.0,100,30.09,-9999.0,NE,4.6,-,N/A,,Clear,50,2013-01-09 12:54:00
5:54 AM,45.1,38.5,77,30.10,7.0,Calm,Calm,-,N/A,,Mostly Cloudy,0,2013-01-09 13:54:00
6:54 AM,43.0,39.0,86,30.11,7.0,Calm,Calm,-,N/A,,Mostly Cloudy,0,2013-01-09 14:54:00
7:54 AM,45.0,40.1,83,30.12,7.0,Calm,Calm,-,N/A,,Mostly Cloudy,0,2013-01-09 15:54:00
8:54 AM,52.0,42.6,70,30.13,7.0,Calm,Calm,-,N/A,,Overcast,0,2013-01-09 16:54:00
9:54 AM,59.0,48.4,68,30.14,7.0,Calm,Calm,-,N/A,,Overcast,0,2013-01-09 17:54:00
10:54 AM,62.6,51.8,68,30.12,7.0,South,10.4,-,N/A,,Overcast,180,2013-01-09 18:54:00
11:09 AM,60.8,51.8,72,30.11,2.0,South,10.4,-,N/A,,Overcast,180,2013-01-09 19:09:00
11:54 AM,60.8,50.0,68,30.10,2.0,SW,8.1,-,N/A,,Overcast,220,2013-01-09 19:54:00
12:54 PM,60.1,50.2,70,30.08,1.0,South,8.1,-,N/A,,Overcast,190,2013-01-09 20:54:00
1:54 PM,60.8,50.0,68,30.06,0.5,South,6.9,-,N/A,Fog,Fog,190,2013-01-09 21:54:00
2:38 PM,57.2,51.8,82,30.05,3.0,South,6.9,-,N/A,,Haze,170,2013-01-09 22:38:00
2:54 PM,57.6,52.5,83,30.06,3.0,South,8.1,-,N/A,,Haze,170,2013-01-09 22:54:00
3:54 PM,57.7,52.3,82,30.06,7.0,South,9.2,-,N/A,,Overcast,170,2013-01-09 23:54:00
4:34 PM,57.2,51.8,82,30.04,7.0,WSW,4.6,-,N/A,,Mostly Cloudy,240,2013-01-10 00:34:00
4:54 PM,56.5,51.6,84,30.05,7.0,WSW,3.5,-,N/A,,Mostly Cloudy,240,2013-01-10 00:54:00
5:01 PM,55.4,51.8,88,30.05,-9999.0,WSW,3.5,-,N/A,,Scattered Clouds,240,2013-01-10 01:01:00
5:41 PM,55.4,51.8,88,30.04,7.0,Calm,Calm,-,N/A,,Mostly Cloudy,0,2013-01-10 01:41:00
5:54 PM,56.1,51.1,83,30.05,7.0,Variable,3.5,-,N/A,,Mostly Cloudy,0,2013-01-10 01:54:00
6:54 PM,55.9,50.9,83,30.05,7.0,Calm,Calm,-,N/A,,Mostly Cloudy,0,2013-01-10 02:54:00
7:49 PM,57.2,50.0,77,30.03,7.0,East,4.6,-,N/A,,Mostly Cloudy,80,2013-01-10 03:49:00
7:54 PM,56.5,50.7,81,30.03,7.0,East,4.6,-,N/A,,Mostly Cloudy,80,2013-01-10 03:54:00
8:54 PM,54.9,50.2,84,30.04,7.0,Calm,Calm,-,N/A,,Mostly Cloudy,0,2013-01-10 04:54:00
9:54 PM,53.8,49.3,85,30.05,7.0,Calm,Calm,-,N/A,,Mostly Cloudy,0,2013-01-10 05:54:00
10:54 PM,55.2,49.3,80,30.03,7.0,East,3.5,-,N/A,,Mostly Cloudy,100,2013-01-10 06:54:00
11:42 PM,51.8,51.8,100,30.02,-9999.0,Calm,Calm,-,N/A,,Overcast,0,2013-01-10 07:42:00
11:54 PM,52.0,51.1,97,30.02,-9999.0,Calm,Calm,-,N/A,,Overcast,0,2013-01-10 07:54:00